STARLINK-5710, 55616

Orbit data source: Space-Track

STARLINK-5710, 55616 is a payload satellite owned by SpaceX/Seattle (US) in LEO that was launched on Sun, 12 Feb 2023 UTC via an FALCON 9 launch vehicle from the Air Force Eastern Test Range (AFETR). Payload-class satellites include a variety of spacecraft equipped with specific instruments for various scientific and technological missions. These include communications satellites like Starlink; space stations such as the ISS; scientific satellites like the Hubble; Earth observation satellites from companies like Planet Labs, Umbra, and HawkEye 360; GPS; miniature CubeSats for education and research; and military/defense satellites.

Loading next visibility...
Identifier
55616, 2023-020AZ
Orbit
LEO
Country
Flag of USUS
Related business
Manufacturer
SpaceX/Seattle
Mission
Operational Commercial Communications
Bus & Motor
STARLINK, Unknown motor
Mass
305 kg wet, ~290 kg dry
Launch date (UTC)
2023-02-12 (3 years ago)
Launch vehicle
FALCON 9
Launch site
Air Force Eastern Test Range (AFETR)
Object type
Payload
Rocket body
Debris
Shape & HBR
Box + 1 Pan, 10.1 m
Radar Cross Section
13.562 m², Large (>1 m²)

Expand to show TLE details & history
Last TLE update: 2 days ago

TLE from 2 days ago
0 STARLINK-5710
1 55616U 23020AZ  26171.29515062  .00001576  00000-0  66761-4 0  9996
2 55616  43.0042 134.5829 0001489 270.9172  89.1509 15.27592320184731
Epoch: 2026-06-20T07:05Z
TLE epoch observation values (Epoch: 2026-06-20T07:05:01.013Z)
Latitude
-0.00003°
Longitude
119.81682°
Altitude
482.773 km
Speed
7.626 km/s
True Right ascension
08h 58m 19s
True Declination
0° 00' 00"
Sunlit
Object was in daylight at epoch
Visualization orbit readout
Latitude
Unknown
Longitude
Unknown
Altitude
Unknown
Speed
Unknown
Apparent Right ascension
Unknown
Apparent Declination
Unknown
Sunlit
N/A
Visualization observer readout
Local Sidereal Time
21:44:37
Azimuth
Unknown
Elevation
Unknown
Doppler factor
Unknown
Orbital elements
Apogee altitude
485.979 km
Perigee altitude
483.935 km
Semi-major axis
6,863.094 km
Eccentricity
0.00015
Inclination
43.0042°
RAAN
134.5829°
Arg. of periapsis
270.9172°
True anomaly
89.16796°
Mean anomaly
89.1509°
Eccentric anomaly
89.15943°
Mean motion
3.81736 °/min
Orbital period
94.31 mins
BSTAR
0.000066761
Loading maneuver chart data...
Computing Atmospheric mass density...
Loading historical data...
Loading historical data...
Loading historical data...
Loading historical data...
Loading historical data...
Loading historical data...
Loading historical data...

Documentation

Showing up to 5 results
|